CMS-01

Last updated on Tue Sep 22 2026 00:03:15 GMT+0000 (Coordinated Universal Time)

1 47256U 20099A 26264.62897190 -.00000169 00000+0 00000+0 0 9991 2 47256 0.0602 91.4619 0005060 162.7304 55.7547 1.00271747 21160
UTC large
Height (km)
Speed (km/s)
/
Latitude / Longitude
Inclination (degrees)
Orbital Period (minutes)
Azimuth
Elevation
Range (km)
Doppler Factor

Next 0 passes for location: London (51.5072 / 0.1276)

No passes found over London.
CMS-01